Time,TemperatureF,DewpointF,PressureIn,WindDirection,WindDirectionDegrees,WindSpeedMPH,WindSpeedGustMPH,Humidity,HourlyPrecipIn,Conditions,Clouds,dailyrainin,SoftwareType,DateUTC
2013-06-26 00:01:00,74.9,44.5,29.83,WSW,248,0.9,1.8,34,0.00,,,0.00,WUHU216HW,2013-06-26 06:01:00,
2013-06-26 00:06:00,74.5,44.1,29.83,West,270,0.0,1.1,34,0.00,,,0.00,WUHU216HW,2013-06-26 06:06:00,
2013-06-26 00:11:00,74.2,44.6,29.83,West,270,0.7,1.1,35,0.00,,,0.00,WUHU216HW,2013-06-26 06:11:00,
2013-06-26 00:16:00,73.6,44.1,29.83,West,270,0.9,1.8,35,0.00,,,0.00,WUHU216HW,2013-06-26 06:16:00,
2013-06-26 00:21:00,73.3,44.6,29.83,West,270,0.4,2.2,36,0.00,,,0.00,WUHU216HW,2013-06-26 06:21:00,
2013-06-26 00:26:00,73.1,45.1,29.83,WSW,248,1.3,2.5,37,0.00,,,0.00,WUHU216HW,2013-06-26 06:26:00,
2013-06-26 00:31:00,72.7,44.8,29.83,WSW,248,0.9,2.5,37,0.00,,,0.00,WUHU216HW,2013-06-26 06:31:00,
2013-06-26 00:36:00,72.5,44.6,29.84,SSW,203,1.1,1.8,37,0.00,,,0.00,WUHU216HW,2013-06-26 06:36:00,
2013-06-26 00:41:00,72.4,45.3,29.84,SW,225,0.7,2.9,38,0.00,,,0.00,WUHU216HW,2013-06-26 06:41:00,
2013-06-26 00:46:00,72.0,44.9,29.83,SW,225,0.0,2.9,38,0.00,,,0.00,WUHU216HW,2013-06-26 06:46:00,
2013-06-26 00:51:00,71.8,44.7,29.84,SW,225,0.0,2.7,38,0.00,,,0.00,WUHU216HW,2013-06-26 06:51:00,
2013-06-26 00:56:00,71.6,45.4,29.84,SSW,203,1.8,2.5,39,0.00,,,0.00,WUHU216HW,2013-06-26 06:56:00,
2013-06-26 01:01:00,71.5,45.2,29.84,SW,225,1.6,2.5,39,0.00,,,0.00,WUHU216HW,2013-06-26 07:01:00,
2013-06-26 01:06:00,71.3,45.0,29.84,West,270,2.2,2.5,39,0.00,,,0.00,WUHU216HW,2013-06-26 07:06:00,
2013-06-26 01:11:00,71.1,44.8,29.84,West,270,0.0,2.2,39,0.00,,,0.00,WUHU216HW,2013-06-26 07:11:00,
2013-06-26 01:16:00,70.9,44.7,29.84,West,270,0.9,1.3,39,0.00,,,0.00,WUHU216HW,2013-06-26 07:16:00,
2013-06-26 01:21:00,70.6,45.1,29.84,West,270,0.4,1.3,40,0.00,,,0.00,WUHU216HW,2013-06-26 07:21:00,
2013-06-26 01:26:00,70.6,45.1,29.83,West,270,0.0,1.1,40,0.00,,,0.00,WUHU216HW,2013-06-26 07:26:00,
2013-06-26 01:31:00,70.2,44.8,29.83,West,270,0.0,1.8,40,0.00,,,0.00,WUHU216HW,2013-06-26 07:31:00,
2013-06-26 01:36:00,70.0,45.2,29.83,WNW,293,1.3,2.0,41,0.00,,,0.00,WUHU216HW,2013-06-26 07:36:00,
2013-06-26 01:41:00,69.8,45.1,29.83,West,270,0.0,2.0,41,0.00,,,0.00,WUHU216HW,2013-06-26 07:41:00,
2013-06-26 01:46:00,69.5,44.7,29.83,West,270,0.0,0.7,41,0.00,,,0.00,WUHU216HW,2013-06-26 07:46:00,
2013-06-26 01:51:00,69.3,45.2,29.84,SSW,203,1.6,1.6,42,0.00,,,0.00,WUHU216HW,2013-06-26 07:51:00,
2013-06-26 01:56:00,68.9,44.8,29.85,SSW,203,1.8,1.8,42,0.00,,,0.00,WUHU216HW,2013-06-26 07:56:00,
2013-06-26 02:01:00,68.8,45.3,29.85,WSW,248,1.3,2.0,43,0.00,,,0.00,WUHU216HW,2013-06-26 08:01:00,
2013-06-26 02:06:00,68.6,45.1,29.84,WSW,248,0.0,2.0,43,0.00,,,0.00,WUHU216HW,2013-06-26 08:06:00,
2013-06-26 02:11:00,68.4,45.5,29.85,WSW,248,0.4,0.4,44,0.00,,,0.00,WUHU216HW,2013-06-26 08:11:00,
2013-06-26 02:16:00,68.2,44.8,29.85,West,270,0.0,0.7,43,0.00,,,0.00,WUHU216HW,2013-06-26 08:16:00,
2013-06-26 02:21:00,68.0,44.7,29.85,WSW,248,1.1,1.3,43,0.00,,,0.00,WUHU216HW,2013-06-26 08:21:00,
2013-06-26 02:26:00,67.9,45.1,29.85,WSW,248,0.0,1.3,44,0.00,,,0.00,WUHU216HW,2013-06-26 08:26:00,
2013-06-26 02:31:00,67.7,44.9,29.85,WSW,248,1.1,1.1,44,0.00,,,0.00,WUHU216HW,2013-06-26 08:31:00,
2013-06-26 02:36:00,67.7,44.9,29.85,WSW,248,0.0,1.1,44,0.00,,,0.00,WUHU216HW,2013-06-26 08:36:00,
2013-06-26 02:41:00,67.5,45.4,29.86,WSW,248,0.4,1.1,45,0.00,,,0.00,WUHU216HW,2013-06-26 08:41:00,
2013-06-26 02:46:00,67.5,45.4,29.86,WSW,248,0.7,1.6,45,0.00,,,0.00,WUHU216HW,2013-06-26 08:46:00,
2013-06-26 02:51:00,67.5,45.4,29.86,WSW,248,1.1,1.6,45,0.00,,,0.00,WUHU216HW,2013-06-26 08:51:00,
2013-06-26 02:56:00,67.3,45.2,29.86,WSW,248,1.3,2.0,45,0.00,,,0.00,WUHU216HW,2013-06-26 08:56:00,
2013-06-26 03:01:00,67.3,45.2,29.86,WSW,248,0.7,2.0,45,0.00,,,0.00,WUHU216HW,2013-06-26 09:01:00,
2013-06-26 03:06:00,67.3,45.2,29.87,SW,225,1.1,1.1,45,0.00,,,0.00,WUHU216HW,2013-06-26 09:06:00,
2013-06-26 03:11:00,67.5,45.4,29.87,SW,225,0.0,1.1,45,0.00,,,0.00,WUHU216HW,2013-06-26 09:11:00,
2013-06-26 03:16:00,67.5,45.9,29.87,SW,225,0.0,0.4,46,0.00,,,0.00,WUHU216HW,2013-06-26 09:16:00,
2013-06-26 03:21:00,67.3,45.7,29.87,SW,225,0.0,0.0,46,0.00,,,0.00,WUHU216HW,2013-06-26 09:21:00,
2013-06-26 03:26:00,67.5,45.9,29.87,SW,225,0.0,0.2,46,0.00,,,0.00,WUHU216HW,2013-06-26 09:26:00,
2013-06-26 03:31:00,67.5,45.9,29.87,SW,225,0.0,0.2,46,0.00,,,0.00,WUHU216HW,2013-06-26 09:31:00,
2013-06-26 03:36:00,67.5,45.9,29.87,SSW,203,0.4,1.1,46,0.00,,,0.00,WUHU216HW,2013-06-26 09:36:00,
2013-06-26 03:41:00,67.5,46.5,29.87,SSW,203,0.0,1.1,47,0.00,,,0.00,WUHU216HW,2013-06-26 09:41:00,
2013-06-26 03:46:00,67.3,46.4,29.87,WSW,248,0.0,0.4,47,0.00,,,0.00,WUHU216HW,2013-06-26 09:46:00,
2013-06-26 03:51:00,67.3,46.4,29.88,WSW,248,0.0,0.4,47,0.00,,,0.00,WUHU216HW,2013-06-26 09:51:00,
2013-06-26 03:56:00,67.3,46.4,29.88,SW,225,0.9,0.9,47,0.00,,,0.00,WUHU216HW,2013-06-26 09:56:00,
2013-06-26 04:01:00,67.3,46.4,29.88,West,270,0.0,1.3,47,0.00,,,0.00,WUHU216HW,2013-06-26 10:01:00,
2013-06-26 04:06:00,67.3,46.4,29.88,SSW,203,2.5,2.5,47,0.00,,,0.00,WUHU216HW,2013-06-26 10:06:00,
2013-06-26 04:11:00,67.3,46.4,29.88,SSE,158,1.3,2.7,47,0.00,,,0.00,WUHU216HW,2013-06-26 10:11:00,
2013-06-26 04:16:00,67.3,46.4,29.88,SSE,158,0.0,2.7,47,0.00,,,0.00,WUHU216HW,2013-06-26 10:16:00,
2013-06-26 04:21:00,67.3,47.0,29.88,SSE,158,0.0,1.6,48,0.00,,,0.00,WUHU216HW,2013-06-26 10:21:00,
2013-06-26 04:26:00,67.3,46.4,29.89,SSE,158,0.0,0.7,47,0.00,,,0.00,WUHU216HW,2013-06-26 10:26:00,
2013-06-26 04:31:00,67.3,47.0,29.89,WSW,248,0.0,0.7,48,0.00,,,0.00,WUHU216HW,2013-06-26 10:31:00,
2013-06-26 04:36:00,67.3,47.0,29.89,WSW,248,0.0,0.2,48,0.00,,,0.00,WUHU216HW,2013-06-26 10:36:00,
2013-06-26 04:41:00,67.3,47.0,29.89,North,0,0.0,0.4,48,0.00,,,0.00,WUHU216HW,2013-06-26 10:41:00,
2013-06-26 04:46:00,67.3,47.0,29.90,WNW,293,0.7,1.1,48,0.00,,,0.00,WUHU216HW,2013-06-26 10:46:00,
2013-06-26 04:51:00,67.3,47.0,29.90,WNW,293,0.0,1.1,48,0.00,,,0.00,WUHU216HW,2013-06-26 10:51:00,
2013-06-26 04:56:00,67.3,47.5,29.90,SW,225,0.0,1.8,49,0.00,,,0.00,WUHU216HW,2013-06-26 10:56:00,
2013-06-26 05:01:00,67.3,47.5,29.89,WNW,293,0.0,1.8,49,0.00,,,0.00,WUHU216HW,2013-06-26 11:01:00,
2013-06-26 05:06:00,67.1,48.0,29.90,South,180,0.4,2.0,50,0.00,,,0.00,WUHU216HW,2013-06-26 11:06:00,
2013-06-26 05:11:00,67.1,48.0,29.90,WSW,248,1.6,2.7,50,0.00,,,0.00,WUHU216HW,2013-06-26 11:11:00,
2013-06-26 05:16:00,67.1,48.0,29.89,South,180,0.0,2.7,50,0.00,,,0.00,WUHU216HW,2013-06-26 11:16:00,
2013-06-26 05:21:00,67.1,48.4,29.90,ESE,113,0.4,1.6,51,0.00,,,0.00,WUHU216HW,2013-06-26 11:21:00,
2013-06-26 05:26:00,67.0,48.3,29.90,NE,45,1.6,1.6,51,0.00,,,0.00,WUHU216HW,2013-06-26 11:26:00,
2013-06-26 05:31:00,66.8,49.2,29.90,North,0,0.4,1.8,53,0.00,,,0.00,WUHU216HW,2013-06-26 11:31:00,
2013-06-26 05:36:00,66.6,49.0,29.90,North,0,0.0,2.0,53,0.00,,,0.00,WUHU216HW,2013-06-26 11:36:00,
2013-06-26 05:41:00,66.4,49.2,29.90,North,0,0.0,2.0,54,0.00,,,0.00,WUHU216HW,2013-06-26 11:41:00,
2013-06-26 05:46:00,66.2,49.2,29.90,North,0,0.0,0.0,54,0.00,,,0.00,WUHU216HW,2013-06-26 11:46:00,
2013-06-26 05:51:00,66.2,49.6,29.91,North,0,0.0,0.0,55,0.00,,,0.00,WUHU216HW,2013-06-26 11:51:00,
2013-06-26 05:56:00,66.2,49.6,29.91,North,0,0.0,0.0,55,0.00,,,0.00,WUHU216HW,2013-06-26 11:56:00,
2013-06-26 06:01:00,66.4,50.2,29.92,North,0,0.0,0.0,56,0.00,,,0.00,WUHU216HW,2013-06-26 12:01:00,
2013-06-26 06:06:00,66.4,50.2,29.91,North,0,0.0,0.0,56,0.00,,,0.00,WUHU216HW,2013-06-26 12:06:00,
2013-06-26 06:11:00,66.2,50.0,29.91,SE,135,0.4,0.4,56,0.00,,,0.00,WUHU216HW,2013-06-26 12:11:00,
2013-06-26 06:16:00,66.2,50.6,29.90,SE,135,0.0,0.4,57,0.00,,,0.00,WUHU216HW,2013-06-26 12:16:00,
2013-06-26 06:21:00,65.9,50.7,29.91,SSE,158,1.1,1.6,58,0.00,,,0.00,WUHU216HW,2013-06-26 12:21:00,
2013-06-26 06:26:00,65.9,51.2,29.90,SSE,158,0.0,1.6,59,0.00,,,0.00,WUHU216HW,2013-06-26 12:26:00,
2013-06-26 06:31:00,65.9,51.7,29.91,SSE,158,0.0,0.7,60,0.00,,,0.00,WUHU216HW,2013-06-26 12:31:00,
2013-06-26 06:36:00,65.7,51.5,29.90,SSE,158,0.0,0.0,60,0.00,,,0.00,WUHU216HW,2013-06-26 12:36:00,
2013-06-26 06:41:00,65.7,51.9,29.91,SSE,158,0.0,0.7,61,0.00,,,0.00,WUHU216HW,2013-06-26 12:41:00,
2013-06-26 06:46:00,65.7,51.9,29.92,SSE,158,0.0,0.7,61,0.00,,,0.00,WUHU216HW,2013-06-26 12:46:00,
2013-06-26 06:51:00,65.9,52.5,29.92,South,180,0.0,0.4,62,0.00,,,0.00,WUHU216HW,2013-06-26 12:51:00,
2013-06-26 06:56:00,65.9,52.1,29.92,West,270,0.0,0.7,61,0.00,,,0.00,WUHU216HW,2013-06-26 12:56:00,
2013-06-26 07:01:00,65.9,52.1,29.92,SSW,203,1.6,2.2,61,0.00,,,0.00,WUHU216HW,2013-06-26 13:01:00,
2013-06-26 07:06:00,65.9,52.1,29.92,WNW,293,0.0,2.2,61,0.00,,,0.00,WUHU216HW,2013-06-26 13:06:00,
2013-06-26 07:11:00,66.1,52.3,29.92,West,270,0.0,1.1,61,0.00,,,0.00,WUHU216HW,2013-06-26 13:11:00,
2013-06-26 07:16:00,66.2,52.5,29.92,WSW,248,1.1,1.1,61,0.00,,,0.00,WUHU216HW,2013-06-26 13:16:00,
2013-06-26 07:21:00,66.6,52.4,29.92,West,270,3.4,4.9,60,0.00,,,0.00,WUHU216HW,2013-06-26 13:21:00,
2013-06-26 07:26:00,66.8,52.0,29.92,West,270,6.3,6.3,59,0.00,,,0.00,WUHU216HW,2013-06-26 13:26:00,
2013-06-26 07:31:00,67.0,51.2,29.92,WNW,293,4.3,8.1,57,0.00,,,0.00,WUHU216HW,2013-06-26 13:31:00,
2013-06-26 07:36:00,67.3,51.6,29.92,West,270,3.6,8.1,57,0.00,,,0.00,WUHU216HW,2013-06-26 13:36:00,
2013-06-26 07:41:00,67.5,51.2,29.92,West,270,5.6,6.7,56,0.00,,,0.00,WUHU216HW,2013-06-26 13:41:00,
2013-06-26 07:46:00,68.0,51.2,29.92,WSW,248,4.0,7.4,55,0.00,,,0.00,WUHU216HW,2013-06-26 13:46:00,
2013-06-26 07:51:00,68.4,51.0,29.92,West,270,2.0,7.4,54,0.00,,,0.00,WUHU216HW,2013-06-26 13:51:00,
2013-06-26 07:56:00,68.8,51.0,29.92,South,180,3.4,6.9,53,0.00,,,0.00,WUHU216HW,2013-06-26 13:56:00,
2013-06-26 08:01:00,68.9,50.6,29.92,NNW,338,1.8,6.9,52,0.00,,,0.00,WUHU216HW,2013-06-26 14:01:00,
2013-06-26 08:06:00,69.3,51.0,29.93,SW,225,1.8,2.9,52,0.00,,,0.00,WUHU216HW,2013-06-26 14:06:00,
2013-06-26 08:11:00,69.7,51.2,29.93,SE,135,2.0,2.9,52,0.00,,,0.00,WUHU216HW,2013-06-26 14:11:00,
2013-06-26 08:16:00,70.0,51.6,29.93,West,270,4.0,4.7,52,0.00,,,0.00,WUHU216HW,2013-06-26 14:16:00,
2013-06-26 08:21:00,70.6,51.6,29.93,West,270,1.6,4.7,51,0.00,,,0.00,WUHU216HW,2013-06-26 14:21:00,
2013-06-26 08:26:00,71.1,51.6,29.94,WNW,293,1.8,3.1,50,0.00,,,0.00,WUHU216HW,2013-06-26 14:26:00,
2013-06-26 08:31:00,72.2,52.5,29.94,WSW,248,2.2,3.1,50,0.00,,,0.00,WUHU216HW,2013-06-26 14:31:00,
2013-06-26 08:36:00,73.1,51.6,29.93,West,270,2.0,3.1,47,0.00,,,0.00,WUHU216HW,2013-06-26 14:36:00,
2013-06-26 08:41:00,74.0,52.4,29.94,West,270,4.9,4.9,47,0.00,,,0.00,WUHU216HW,2013-06-26 14:41:00,
2013-06-26 08:46:00,74.5,52.3,29.94,SW,225,1.3,4.9,46,0.00,,,0.00,WUHU216HW,2013-06-26 14:46:00,
2013-06-26 08:51:00,75.1,52.8,29.94,SW,225,0.4,4.0,46,0.00,,,0.00,WUHU216HW,2013-06-26 14:51:00,
2013-06-26 08:56:00,76.0,52.4,29.94,SW,225,2.5,6.0,44,0.00,,,0.00,WUHU216HW,2013-06-26 14:56:00,
2013-06-26 09:01:00,76.9,53.2,29.94,West,270,2.5,6.0,44,0.00,,,0.00,WUHU216HW,2013-06-26 15:01:00,
2013-06-26 09:06:00,77.9,53.6,29.94,SSE,158,0.7,4.0,43,0.00,,,0.00,WUHU216HW,2013-06-26 15:06:00,
2013-06-26 09:11:00,78.7,53.0,29.94,West,270,4.0,6.3,41,0.00,,,0.00,WUHU216HW,2013-06-26 15:11:00,
2013-06-26 09:16:00,79.0,52.8,29.95,WNW,293,2.2,6.3,40,0.00,,,0.00,WUHU216HW,2013-06-26 15:16:00,
2013-06-26 09:21:00,79.2,52.9,29.95,NW,315,3.4,4.7,40,0.00,,,0.00,WUHU216HW,2013-06-26 15:21:00,
2013-06-26 09:26:00,79.6,53.2,29.95,West,270,3.4,4.7,40,0.00,,,0.00,WUHU216HW,2013-06-26 15:26:00,
2013-06-26 09:31:00,80.3,51.6,29.94,WNW,293,2.5,6.3,37,0.00,,,0.00,WUHU216HW,2013-06-26 15:31:00,
2013-06-26 09:36:00,80.6,51.8,29.94,NW,315,1.8,6.3,37,0.00,,,0.00,WUHU216HW,2013-06-26 15:36:00,
2013-06-26 09:41:00,80.8,52.0,29.94,NNE,23,2.0,4.0,37,0.00,,,0.00,WUHU216HW,2013-06-26 15:41:00,
2013-06-26 09:46:00,81.0,50.6,29.94,NW,315,4.9,7.8,35,0.00,,,0.00,WUHU216HW,2013-06-26 15:46:00,
2013-06-26 09:51:00,81.4,50.1,29.94,NNW,338,1.3,7.8,34,0.00,,,0.00,WUHU216HW,2013-06-26 15:51:00,
2013-06-26 09:56:00,82.1,50.8,29.94,WSW,248,4.9,5.6,34,0.00,,,0.00,WUHU216HW,2013-06-26 15:56:00,
2013-06-26 10:01:00,82.6,51.2,29.94,NNW,338,2.5,7.6,34,0.00,,,0.00,WUHU216HW,2013-06-26 16:01:00,
2013-06-26 10:06:00,83.0,51.6,29.94,West,270,3.6,7.6,34,0.00,,,0.00,WUHU216HW,2013-06-26 16:06:00,
2013-06-26 10:11:00,83.7,50.6,29.94,West,270,3.4,6.0,32,0.00,,,0.00,WUHU216HW,2013-06-26 16:11:00,
2013-06-26 10:16:00,83.9,50.8,29.94,West,270,6.3,6.3,32,0.00,,,0.00,WUHU216HW,2013-06-26 16:16:00,
2013-06-26 10:21:00,84.1,51.0,29.95,NW,315,2.5,6.3,32,0.00,,,0.00,WUHU216HW,2013-06-26 16:21:00,
2013-06-26 10:26:00,84.6,48.8,29.95,WNW,293,3.1,14.3,29,0.00,,,0.00,WUHU216HW,2013-06-26 16:26:00,
2013-06-26 10:31:00,84.6,49.9,29.95,WSW,248,8.5,14.3,30,0.00,,,0.00,WUHU216HW,2013-06-26 16:31:00,
2013-06-26 10:36:00,84.8,50.0,29.94,WNW,293,4.5,9.4,30,0.00,,,0.00,WUHU216HW,2013-06-26 16:36:00,
2013-06-26 10:41:00,85.0,49.1,29.95,SW,225,5.4,11.0,29,0.00,,,0.00,WUHU216HW,2013-06-26 16:41:00,
2013-06-26 10:46:00,85.3,49.4,29.95,NW,315,4.3,11.0,29,0.00,,,0.00,WUHU216HW,2013-06-26 16:46:00,
2013-06-26 10:51:00,85.7,48.6,29.95,WSW,248,6.3,10.5,28,0.00,,,0.00,WUHU216HW,2013-06-26 16:51:00,
2013-06-26 10:56:00,85.7,48.6,29.95,West,270,5.8,10.5,28,0.00,,,0.00,WUHU216HW,2013-06-26 16:56:00,
2013-06-26 11:01:00,85.9,48.8,29.95,WSW,248,9.8,9.8,28,0.00,,,0.00,WUHU216HW,2013-06-26 17:01:00,
2013-06-26 11:06:00,86.2,49.2,29.95,West,270,9.2,9.8,28,0.00,,,0.00,WUHU216HW,2013-06-26 17:06:00,
2013-06-26 11:11:00,86.4,49.2,29.95,West,270,2.2,9.4,28,0.00,,,0.00,WUHU216HW,2013-06-26 17:11:00,
2013-06-26 11:16:00,86.4,49.2,29.95,West,270,7.4,7.6,28,0.00,,,0.00,WUHU216HW,2013-06-26 17:16:00,
2013-06-26 11:21:00,86.2,50.2,29.95,NNW,338,4.9,7.6,29,0.00,,,0.00,WUHU216HW,2013-06-26 17:21:00,
2013-06-26 11:26:00,85.7,49.7,29.95,NW,315,2.5,7.8,29,0.00,,,0.00,WUHU216HW,2013-06-26 17:26:00,
2013-06-26 11:31:00,85.9,49.9,29.95,South,180,2.5,7.8,29,0.00,,,0.00,WUHU216HW,2013-06-26 17:31:00,
2013-06-26 11:36:00,86.0,50.0,29.95,WSW,248,2.2,3.4,29,0.00,,,0.00,WUHU216HW,2013-06-26 17:36:00,
2013-06-26 11:41:00,86.4,50.3,29.94,West,270,4.9,4.9,29,0.00,,,0.00,WUHU216HW,2013-06-26 17:41:00,
2013-06-26 11:46:00,86.9,49.7,29.94,WSW,248,3.6,4.9,28,0.00,,,0.00,WUHU216HW,2013-06-26 17:46:00,
2013-06-26 11:51:00,87.7,50.3,29.94,WSW,248,5.1,5.1,28,0.00,,,0.00,WUHU216HW,2013-06-26 17:51:00,
2013-06-26 11:56:00,87.8,49.4,29.94,SW,225,2.9,6.3,27,0.00,,,0.00,WUHU216HW,2013-06-26 17:56:00,
2013-06-26 12:01:00,87.8,50.4,29.94,WNW,293,6.3,6.3,28,0.00,,,0.00,WUHU216HW,2013-06-26 18:01:00,
2013-06-26 12:06:00,87.5,50.1,29.94,WNW,293,1.3,6.5,28,0.00,,,0.00,WUHU216HW,2013-06-26 18:06:00,
2013-06-26 12:11:00,87.3,50.0,29.94,NW,315,1.8,6.5,28,0.00,,,0.00,WUHU216HW,2013-06-26 18:11:00,
2013-06-26 12:16:00,87.3,50.0,29.94,North,0,1.3,2.9,28,0.00,,,0.00,WUHU216HW,2013-06-26 18:16:00,
2013-06-26 12:21:00,88.0,48.5,29.94,NW,315,4.9,4.9,26,0.00,,,0.00,WUHU216HW,2013-06-26 18:21:00,
2013-06-26 12:26:00,88.6,49.0,29.94,North,0,2.5,4.9,26,0.00,,,0.00,WUHU216HW,2013-06-26 18:26:00,
2013-06-26 12:31:00,88.9,49.2,29.94,NNW,338,2.7,3.4,26,0.00,,,0.00,WUHU216HW,2013-06-26 18:31:00,
2013-06-26 12:36:00,89.3,48.5,29.94,NNW,338,3.8,8.5,25,0.00,,,0.00,WUHU216HW,2013-06-26 18:36:00,
2013-06-26 12:41:00,89.6,47.7,29.94,NW,315,4.0,8.5,24,0.00,,,0.00,WUHU216HW,2013-06-26 18:41:00,
2013-06-26 12:46:00,89.8,47.9,29.94,West,270,2.5,8.5,24,0.00,,,0.00,WUHU216HW,2013-06-26 18:46:00,
2013-06-26 12:51:00,89.6,48.8,29.93,West,270,2.7,8.5,25,0.00,,,0.00,WUHU216HW,2013-06-26 18:51:00,
2013-06-26 12:56:00,89.6,48.8,29.93,NNW,338,4.0,7.8,25,0.00,,,0.00,WUHU216HW,2013-06-26 18:56:00,
2013-06-26 13:01:00,90.4,49.4,29.93,West,270,3.8,6.9,25,0.00,,,0.00,WUHU216HW,2013-06-26 19:01:00,
2013-06-26 13:06:00,90.5,48.4,29.93,North,0,2.7,8.5,24,0.00,,,0.00,WUHU216HW,2013-06-26 19:06:00,
2013-06-26 13:11:00,89.8,47.9,29.93,WNW,293,1.1,8.5,24,0.00,,,0.00,WUHU216HW,2013-06-26 19:11:00,
2013-06-26 13:16:00,89.6,48.8,29.93,NW,315,7.4,11.6,25,0.00,,,0.00,WUHU216HW,2013-06-26 19:16:00,
2013-06-26 13:21:00,89.6,48.8,29.93,WNW,293,6.9,11.6,25,0.00,,,0.00,WUHU216HW,2013-06-26 19:21:00,
2013-06-26 13:26:00,90.0,48.0,29.93,SSW,203,2.0,8.9,24,0.00,,,0.00,WUHU216HW,2013-06-26 19:26:00,
2013-06-26 13:31:00,90.0,49.1,29.93,WNW,293,1.1,6.9,25,0.00,,,0.00,WUHU216HW,2013-06-26 19:31:00,
2013-06-26 13:36:00,89.5,48.6,29.93,NW,315,2.2,3.8,25,0.00,,,0.00,WUHU216HW,2013-06-26 19:36:00,
2013-06-26 13:41:00,88.9,48.2,29.93,WNW,293,5.1,7.4,25,0.00,,,0.00,WUHU216HW,2013-06-26 19:41:00,
2013-06-26 13:46:00,88.9,48.2,29.93,NW,315,2.2,7.4,25,0.00,,,0.00,WUHU216HW,2013-06-26 19:46:00,
2013-06-26 13:51:00,89.1,48.3,29.93,NNE,23,2.5,6.5,25,0.00,,,0.00,WUHU216HW,2013-06-26 19:51:00,
2013-06-26 13:56:00,88.7,48.0,29.93,North,0,3.4,6.5,25,0.00,,,0.00,WUHU216HW,2013-06-26 19:56:00,
2013-06-26 14:01:00,88.4,47.7,29.93,NW,315,3.1,8.7,25,0.00,,,0.00,WUHU216HW,2013-06-26 20:01:00,
2013-06-26 14:06:00,89.1,49.4,29.93,NNE,23,3.8,8.7,26,0.00,,,0.00,WUHU216HW,2013-06-26 20:06:00,
2013-06-26 14:11:00,89.5,48.6,29.93,WNW,293,5.8,8.5,25,0.00,,,0.00,WUHU216HW,2013-06-26 20:11:00,
2013-06-26 14:16:00,89.1,48.3,29.93,NNW,338,3.4,8.5,25,0.00,,,0.00,WUHU216HW,2013-06-26 20:16:00,
2013-06-26 14:21:00,88.7,48.0,29.93,NW,315,4.3,7.2,25,0.00,,,0.00,WUHU216HW,2013-06-26 20:21:00,
2013-06-26 14:26:00,87.8,47.3,29.93,NW,315,2.2,6.9,25,0.00,,,0.00,WUHU216HW,2013-06-26 20:26:00,
2013-06-26 14:31:00,87.1,46.6,29.93,North,0,1.3,6.9,25,0.00,,,0.00,WUHU216HW,2013-06-26 20:31:00,
2013-06-26 14:36:00,86.8,46.4,29.93,ENE,68,2.7,5.8,25,0.00,,,0.00,WUHU216HW,2013-06-26 20:36:00,
2013-06-26 14:41:00,86.8,47.4,29.93,NNW,338,2.5,4.7,26,0.00,,,0.00,WUHU216HW,2013-06-26 20:41:00,
2013-06-26 14:46:00,87.1,46.6,29.93,North,0,4.0,6.5,25,0.00,,,0.00,WUHU216HW,2013-06-26 20:46:00,
2013-06-26 14:51:00,87.5,48.0,29.93,WNW,293,4.3,6.5,26,0.00,,,0.00,WUHU216HW,2013-06-26 20:51:00,
2013-06-26 14:56:00,87.3,46.8,29.93,NNE,23,4.9,6.3,25,0.00,,,0.00,WUHU216HW,2013-06-26 20:56:00,
2013-06-26 15:01:00,86.4,46.0,29.93,NNW,338,6.3,6.3,25,0.00,,,0.00,WUHU216HW,2013-06-26 21:01:00,
2013-06-26 15:06:00,86.0,46.8,29.93,NW,315,4.3,6.3,26,0.00,,,0.00,WUHU216HW,2013-06-26 21:06:00,
2013-06-26 15:11:00,86.4,47.1,29.93,North,0,2.0,11.4,26,0.00,,,0.00,WUHU216HW,2013-06-26 21:11:00,
2013-06-26 15:16:00,86.8,47.4,29.93,NNW,338,3.4,11.4,26,0.00,,,0.00,WUHU216HW,2013-06-26 21:16:00,
2013-06-26 15:21:00,86.2,47.0,29.93,NNW,338,2.5,7.6,26,0.00,,,0.00,WUHU216HW,2013-06-26 21:21:00,
2013-06-26 15:26:00,86.0,46.8,29.93,SSW,203,5.4,7.2,26,0.00,,,0.00,WUHU216HW,2013-06-26 21:26:00,
2013-06-26 15:31:00,86.4,47.1,29.93,NNW,338,3.6,7.2,26,0.00,,,0.00,WUHU216HW,2013-06-26 21:31:00,
2013-06-26 15:36:00,86.9,47.5,29.93,SW,225,6.0,6.3,26,0.00,,,0.00,WUHU216HW,2013-06-26 21:36:00,
2013-06-26 15:41:00,87.3,46.8,29.93,NW,315,2.9,6.3,25,0.00,,,0.00,WUHU216HW,2013-06-26 21:41:00,
2013-06-26 15:46:00,87.3,46.8,29.93,WNW,293,2.2,5.6,25,0.00,,,0.00,WUHU216HW,2013-06-26 21:46:00,
2013-06-26 15:51:00,88.2,47.5,29.93,NW,315,3.4,6.5,25,0.00,,,0.00,WUHU216HW,2013-06-26 21:51:00,
2013-06-26 15:56:00,88.4,46.6,29.93,WNW,293,1.8,6.5,24,0.00,,,0.00,WUHU216HW,2013-06-26 21:56:00,
2013-06-26 16:01:00,88.4,46.6,29.93,North,0,0.0,5.6,24,0.00,,,0.00,WUHU216HW,2013-06-26 22:01:00,
2013-06-26 16:06:00,88.0,46.4,29.93,NNW,338,3.1,4.5,24,0.00,,,0.00,WUHU216HW,2013-06-26 22:06:00,
2013-06-26 16:11:00,87.8,46.2,29.93,NW,315,5.4,5.4,24,0.00,,,0.00,WUHU216HW,2013-06-26 22:11:00,
2013-06-26 16:16:00,88.2,46.5,29.93,NNE,23,4.0,5.8,24,0.00,,,0.00,WUHU216HW,2013-06-26 22:16:00,
2013-06-26 16:21:00,88.2,46.5,29.93,NNE,23,2.9,5.8,24,0.00,,,0.00,WUHU216HW,2013-06-26 22:21:00,
2013-06-26 16:26:00,88.4,46.6,29.94,North,0,3.6,4.3,24,0.00,,,0.00,WUHU216HW,2013-06-26 22:26:00,
2013-06-26 16:31:00,88.2,45.5,29.94,North,0,4.7,5.1,23,0.00,,,0.00,WUHU216HW,2013-06-26 22:31:00,
2013-06-26 16:36:00,87.5,45.9,29.94,NE,45,1.8,5.8,24,0.00,,,0.00,WUHU216HW,2013-06-26 22:36:00,
2013-06-26 16:41:00,87.5,45.9,29.94,North,0,4.7,5.8,24,0.00,,,0.00,WUHU216HW,2013-06-26 22:41:00,
2013-06-26 16:46:00,87.5,47.0,29.94,NE,45,3.4,5.4,25,0.00,,,0.00,WUHU216HW,2013-06-26 22:46:00,
2013-06-26 16:51:00,88.0,46.4,29.94,North,0,2.7,5.4,24,0.00,,,0.00,WUHU216HW,2013-06-26 22:51:00,
2013-06-26 16:56:00,88.0,46.4,29.94,NNE,23,1.8,4.7,24,0.00,,,0.00,WUHU216HW,2013-06-26 22:56:00,
2013-06-26 17:01:00,88.0,46.4,29.94,North,0,2.5,5.1,24,0.00,,,0.00,WUHU216HW,2013-06-26 23:01:00,
2013-06-26 17:06:00,87.7,47.1,29.94,North,0,2.2,5.4,25,0.00,,,0.00,WUHU216HW,2013-06-26 23:06:00,
2013-06-26 17:11:00,87.5,47.0,29.94,North,0,3.6,5.4,25,0.00,,,0.00,WUHU216HW,2013-06-26 23:11:00,
2013-06-26 17:16:00,86.4,46.0,29.95,NNE,23,3.4,6.3,25,0.00,,,0.00,WUHU216HW,2013-06-26 23:16:00,
2013-06-26 17:21:00,85.9,45.5,29.95,North,0,4.0,6.3,25,0.00,,,0.00,WUHU216HW,2013-06-26 23:21:00,
2013-06-26 17:26:00,85.3,46.2,29.95,NNE,23,5.8,6.3,26,0.00,,,0.00,WUHU216HW,2013-06-26 23:26:00,
2013-06-26 17:31:00,85.1,46.0,29.95,NNW,338,3.1,5.8,26,0.00,,,0.00,WUHU216HW,2013-06-26 23:31:00,
2013-06-26 17:36:00,85.0,47.0,29.94,NNE,23,5.6,5.8,27,0.00,,,0.00,WUHU216HW,2013-06-26 23:36:00,
2013-06-26 17:41:00,85.1,48.2,29.94,North,0,3.1,5.6,28,0.00,,,0.00,WUHU216HW,2013-06-26 23:41:00,
2013-06-26 17:46:00,85.7,47.6,29.94,NNW,338,2.5,5.6,27,0.00,,,0.00,WUHU216HW,2013-06-26 23:46:00,
2013-06-26 17:51:00,86.0,46.8,29.94,NNW,338,3.4,5.6,26,0.00,,,0.00,WUHU216HW,2013-06-26 23:51:00,
2013-06-26 17:56:00,86.0,46.8,29.95,NW,315,2.5,6.3,26,0.00,,,0.00,WUHU216HW,2013-06-26 23:56:00,
2013-06-26 18:01:00,85.7,46.5,29.95,North,0,2.2,6.3,26,0.00,,,0.00,WUHU216HW,2013-06-27 00:01:00,
2013-06-26 18:06:00,85.3,46.2,29.95,ENE,68,2.5,3.4,26,0.00,,,0.00,WUHU216HW,2013-06-27 00:06:00,
2013-06-26 18:11:00,85.7,47.6,29.94,ENE,68,3.1,3.4,27,0.00,,,0.00,WUHU216HW,2013-06-27 00:11:00,
2013-06-26 18:16:00,86.4,47.1,29.95,NNE,23,2.0,3.1,26,0.00,,,0.00,WUHU216HW,2013-06-27 00:16:00,
2013-06-26 18:21:00,86.8,47.4,29.95,North,0,2.0,4.0,26,0.00,,,0.00,WUHU216HW,2013-06-27 00:21:00,
2013-06-26 18:26:00,86.0,46.8,29.95,North,0,1.3,4.0,26,0.00,,,0.00,WUHU216HW,2013-06-27 00:26:00,
2013-06-26 18:31:00,85.5,46.4,29.95,North,0,1.1,3.1,26,0.00,,,0.00,WUHU216HW,2013-06-27 00:31:00,
2013-06-26 18:36:00,85.0,47.0,29.95,NE,45,0.9,3.4,27,0.00,,,0.00,WUHU216HW,2013-06-27 00:36:00,
2013-06-26 18:41:00,85.7,48.6,29.95,NE,45,1.1,3.6,28,0.00,,,0.00,WUHU216HW,2013-06-27 00:41:00,
2013-06-26 18:46:00,86.0,47.9,29.95,North,0,4.0,4.0,27,0.00,,,0.00,WUHU216HW,2013-06-27 00:46:00,
2013-06-26 18:51:00,86.0,47.9,29.95,North,0,1.1,4.0,27,0.00,,,0.00,WUHU216HW,2013-06-27 00:51:00,
2013-06-26 18:56:00,85.7,48.6,29.95,North,0,0.9,4.0,28,0.00,,,0.00,WUHU216HW,2013-06-27 00:56:00,
2013-06-26 19:01:00,85.0,48.0,29.95,NE,45,0.9,3.1,28,0.00,,,0.00,WUHU216HW,2013-06-27 01:01:00,
2013-06-26 19:06:00,84.6,47.7,29.95,NNE,23,1.1,3.1,28,0.00,,,0.00,WUHU216HW,2013-06-27 01:06:00,
2013-06-26 19:11:00,84.2,47.3,29.95,NNW,338,1.1,2.9,28,0.00,,,0.00,WUHU216HW,2013-06-27 01:11:00,
2013-06-26 19:16:00,84.1,48.2,29.95,NNW,338,0.4,1.3,29,0.00,,,0.00,WUHU216HW,2013-06-27 01:16:00,
2013-06-26 19:21:00,84.1,48.2,29.95,NNE,23,1.1,1.1,29,0.00,,,0.00,WUHU216HW,2013-06-27 01:21:00,
2013-06-26 19:26:00,84.1,48.2,29.95,North,0,0.7,1.1,29,0.00,,,0.00,WUHU216HW,2013-06-27 01:26:00,
2013-06-26 19:31:00,83.9,48.2,29.96,NW,315,0.4,1.1,29,0.00,,,0.00,WUHU216HW,2013-06-27 01:31:00,
2013-06-26 19:36:00,83.7,48.0,29.96,North,0,2.2,2.2,29,0.00,,,0.00,WUHU216HW,2013-06-27 01:36:00,
2013-06-26 19:41:00,83.2,47.5,29.96,NNE,23,1.1,2.2,29,0.00,,,0.00,WUHU216HW,2013-06-27 01:41:00,
2013-06-26 19:46:00,83.2,48.5,29.96,NE,45,0.7,1.3,30,0.00,,,0.00,WUHU216HW,2013-06-27 01:46:00,
2013-06-26 19:51:00,83.2,48.5,29.96,NNE,23,0.0,1.1,30,0.00,,,0.00,WUHU216HW,2013-06-27 01:51:00,
2013-06-26 19:56:00,83.5,49.7,29.96,NNE,23,0.2,0.7,31,0.00,,,0.00,WUHU216HW,2013-06-27 01:56:00,
2013-06-26 20:01:00,83.7,49.8,29.96,NNE,23,0.0,1.1,31,0.00,,,0.00,WUHU216HW,2013-06-27 02:01:00,
2013-06-26 20:06:00,83.3,49.5,29.95,North,0,0.7,1.1,31,0.00,,,0.00,WUHU216HW,2013-06-27 02:06:00,
2013-06-26 20:11:00,83.0,49.1,29.96,North,0,0.0,0.9,31,0.00,,,0.00,WUHU216HW,2013-06-27 02:11:00,
2013-06-26 20:16:00,82.6,48.9,29.96,NW,315,0.0,0.9,31,0.00,,,0.00,WUHU216HW,2013-06-27 02:16:00,
2013-06-26 20:21:00,82.3,48.5,29.97,NW,315,0.0,0.7,31,0.00,,,0.00,WUHU216HW,2013-06-27 02:21:00,
2013-06-26 20:26:00,81.7,48.1,29.97,NW,315,0.0,0.7,31,0.00,,,0.00,WUHU216HW,2013-06-27 02:26:00,
2013-06-26 20:31:00,81.7,48.9,29.97,SE,135,0.0,0.2,32,0.00,,,0.00,WUHU216HW,2013-06-27 02:31:00,
2013-06-26 20:36:00,81.4,48.6,29.98,NNW,338,0.0,0.7,32,0.00,,,0.00,WUHU216HW,2013-06-27 02:36:00,
2013-06-26 20:41:00,81.0,48.2,29.98,NNW,338,0.0,0.7,32,0.00,,,0.00,WUHU216HW,2013-06-27 02:41:00,
2013-06-26 20:46:00,80.8,48.2,29.98,NNW,338,0.4,0.9,32,0.00,,,0.00,WUHU216HW,2013-06-27 02:46:00,
2013-06-26 20:51:00,80.6,48.0,29.98,North,0,1.8,1.8,32,0.00,,,0.00,WUHU216HW,2013-06-27 02:51:00,
2013-06-26 20:56:00,80.3,48.4,29.98,NNE,23,0.7,1.8,33,0.00,,,0.00,WUHU216HW,2013-06-27 02:56:00,
2013-06-26 21:01:00,80.1,48.2,29.98,WNW,293,1.1,1.6,33,0.00,,,0.00,WUHU216HW,2013-06-27 03:01:00,
2013-06-26 21:06:00,79.9,48.9,30.00,WNW,293,2.7,2.7,34,0.00,,,0.00,WUHU216HW,2013-06-27 03:06:00,
2013-06-26 21:11:00,79.6,49.3,30.03,North,0,4.3,4.3,35,0.00,,,0.00,WUHU216HW,2013-06-27 03:11:00,
2013-06-26 21:16:00,77.4,53.1,30.04,NE,45,3.4,5.8,43,0.00,,,0.00,WUHU216HW,2013-06-27 03:16:00,
2013-06-26 21:21:00,74.9,54.5,30.04,WNW,293,2.7,5.8,49,0.00,,,0.00,WUHU216HW,2013-06-27 03:21:00,
2013-06-26 21:26:00,73.3,53.5,30.04,NE,45,2.5,4.7,50,0.00,,,0.00,WUHU216HW,2013-06-27 03:26:00,
2013-06-26 21:31:00,71.6,52.0,30.03,ENE,68,1.1,4.7,50,0.00,,,0.00,WUHU216HW,2013-06-27 03:31:00,
2013-06-26 21:36:00,71.3,52.8,30.03,NNW,338,0.0,1.3,52,0.00,,,0.00,WUHU216HW,2013-06-27 03:36:00,
2013-06-26 21:41:00,71.1,53.6,30.03,NNW,338,0.0,1.1,54,0.00,,,0.00,WUHU216HW,2013-06-27 03:41:00,
2013-06-26 21:46:00,70.9,53.9,30.03,NNW,338,0.0,0.0,55,0.00,,,0.00,WUHU216HW,2013-06-27 03:46:00,
2013-06-26 21:51:00,70.6,54.5,30.03,NNW,338,0.0,0.0,57,0.00,,,0.00,WUHU216HW,2013-06-27 03:51:00,
2013-06-26 21:56:00,70.6,54.5,30.04,NNW,338,0.0,0.0,57,0.00,,,0.00,WUHU216HW,2013-06-27 03:56:00,
2013-06-26 22:01:00,70.4,54.9,30.04,WNW,293,0.0,0.0,58,0.00,,,0.00,WUHU216HW,2013-06-27 04:01:00,
2013-06-26 22:06:00,70.4,54.9,30.05,SW,225,0.4,0.9,58,0.00,,,0.00,WUHU216HW,2013-06-27 04:06:00,
2013-06-26 22:11:00,70.2,55.3,30.05,WSW,248,1.1,1.1,59,0.00,,,0.00,WUHU216HW,2013-06-27 04:11:00,
2013-06-26 22:16:00,70.2,55.8,30.05,WSW,248,1.3,3.4,60,0.00,,,0.00,WUHU216HW,2013-06-27 04:16:00,
2013-06-26 22:21:00,70.2,55.8,30.06,WSW,248,2.0,3.4,60,0.00,,,0.00,WUHU216HW,2013-06-27 04:21:00,
2013-06-26 22:26:00,70.4,55.5,30.06,West,270,0.0,2.5,59,0.00,,,0.00,WUHU216HW,2013-06-27 04:26:00,
2013-06-26 22:31:00,70.2,55.3,30.05,West,270,0.0,1.6,59,0.00,,,0.00,WUHU216HW,2013-06-27 04:31:00,
2013-06-26 22:36:00,69.8,55.4,30.05,WNW,293,0.0,0.4,60,0.00,,,0.00,WUHU216HW,2013-06-27 04:36:00,
2013-06-26 22:41:00,69.7,55.7,30.05,WNW,293,0.0,0.4,61,0.00,,,0.00,WUHU216HW,2013-06-27 04:41:00,
2013-06-26 22:46:00,69.5,55.9,30.05,WNW,293,1.1,1.1,62,0.00,,,0.00,WUHU216HW,2013-06-27 04:46:00,
2013-06-26 22:51:00,69.3,55.7,30.05,WNW,293,1.3,1.3,62,0.00,,,0.00,WUHU216HW,2013-06-27 04:51:00,
2013-06-26 22:56:00,69.3,56.2,30.05,West,270,1.1,1.3,63,0.00,,,0.00,WUHU216HW,2013-06-27 04:56:00,
2013-06-26 23:01:00,69.3,55.7,30.05,West,270,0.0,1.1,62,0.00,,,0.00,WUHU216HW,2013-06-27 05:01:00,
2013-06-26 23:06:00,69.1,56.0,30.05,WNW,293,1.3,1.8,63,0.00,,,0.00,WUHU216HW,2013-06-27 05:06:00,
2013-06-26 23:11:00,69.3,56.2,30.05,WNW,293,1.6,1.8,63,0.00,,,0.00,WUHU216HW,2013-06-27 05:11:00,
2013-06-26 23:16:00,69.3,56.2,30.06,West,270,2.2,2.2,63,0.00,,,0.00,WUHU216HW,2013-06-27 05:16:00,
2013-06-26 23:21:00,69.3,56.2,30.05,West,270,1.1,2.2,63,0.00,,,0.00,WUHU216HW,2013-06-27 05:21:00,
2013-06-26 23:26:00,69.3,56.2,30.05,West,270,0.9,1.8,63,0.00,,,0.00,WUHU216HW,2013-06-27 05:26:00,
2013-06-26 23:31:00,69.5,56.8,30.05,West,270,0.0,1.6,64,0.00,,,0.00,WUHU216HW,2013-06-27 05:31:00,
2013-06-26 23:36:00,69.5,56.8,30.05,West,270,0.0,0.0,64,0.00,,,0.00,WUHU216HW,2013-06-27 05:36:00,
2013-06-26 23:41:00,69.1,56.4,30.06,West,270,0.7,0.7,64,0.00,,,0.00,WUHU216HW,2013-06-27 05:41:00,
2013-06-26 23:46:00,69.1,56.8,30.06,West,270,0.0,0.7,65,0.00,,,0.00,WUHU216HW,2013-06-27 05:46:00,
2013-06-26 23:51:00,68.9,56.7,30.05,West,270,0.4,0.7,65,0.00,,,0.00,WUHU216HW,2013-06-27 05:51:00,
2013-06-26 23:56:00,68.8,56.9,30.05,West,270,0.0,0.7,66,0.00,,,0.00,WUHU216HW,2013-06-27 05:56:00,